| time (UTC) | temp C | wind direction | speed KPH | gust KPH | rain 1hr cm | rain 24hr cm | rain mn cm | humidity % | barometer mb |
| 20260508141509 | 15 | 22 | 1.6 | 4.8 | 0.00 | 0.00 | 0.00 | 87 | 1014.6 |
| 20260508140535 | 15 | 135 | 1.6 | 8.0 | 0.00 | 0.00 | 0.00 | 90 | 1014.2 |
| 20260508135635 | 14 | 123 | 1.6 | 4.8 | 0.00 | 0.00 | 0.00 | 92 | 1014.6 |
| 20260508134617 | 13 | 133 | 1.6 | 4.8 | 0.00 | 0.00 | 0.00 | 93 | 1015.0 |
| 20260508133835 | 14 | 167 | 3.2 | 4.8 | 0.00 | 0.00 | 0.00 | 94 | 1015.1 |
| 20260508133003 | 13 | 148 | 3.2 | 4.8 | 0.00 | 0.00 | 0.00 | 94 | 1015.5 |
| 20260508132935 | 13 | 132 | 1.6 | 4.8 | 0.00 | 0.00 | 0.00 | 94 | 1015.2 |
| 20260508131605 | 13 | 336 | 0.0 | 4.8 | 0.00 | 0.00 | 0.00 | 94 | 1015.4 |
| 20260508131135 | 13 | 321 | 1.6 | 3.2 | 0.00 | 0.00 | 0.00 | 94 | 1014.6 |
| 20260508130235 | 13 | 226 | 1.6 | 3.2 | 0.00 | 0.00 | 0.00 | 94 | 1014.7 |
| 20260508130005 | 12 | 158 | 0.0 | 3.2 | 0.00 | 0.00 | 0.00 | 94 | 1015.0 |
| 20260508125335 | 13 | 334 | 0.0 | 3.2 | 0.00 | 0.00 | 0.00 | 94 | 1014.9 |
| 20260508124511 | 12 | 13 | 0.0 | 3.2 | 0.00 | 0.00 | 0.00 | 94 | 1015.3 |
| 20260508123535 | 12 | 26 | 0.0 | 1.6 | 0.00 | 0.00 | 0.00 | 95 | 1014.6 |
| 20260508123009 | 12 | 45 | 0.0 | 4.8 | 0.00 | 0.00 | 0.00 | 94 | 1014.9 |
| 20260508122635 | 12 | 9 | 1.6 | 4.8 | 0.00 | 0.00 | 0.00 | 94 | 1014.5 |
| 20260508121505 | 12 | 236 | 0.0 | 1.6 | 0.00 | 0.00 | 0.00 | 94 | 1014.7 |
| 20260508120835 | 12 | 188 | 1.6 | 3.2 | 0.00 | 0.00 | 0.00 | 94 | 1014.3 |
| 20260508120004 | 12 | 173 | 0.0 | 3.2 | 0.00 | 0.00 | 0.00 | 94 | 1014.6 |
| 20260508115935 | 12 | 315 | 1.6 | 4.8 | 0.00 | 0.00 | 0.00 | 94 | 1014.2 |
| 20260508114504 | 12 | 355 | 0.0 | 4.8 | 0.00 | 0.00 | 0.00 | 95 | 1014.4 |
| 20260508114135 | 12 | 7 | 1.6 | 6.4 | 0.00 | 0.00 | 0.00 | 95 | 1013.7 |
| 20260508113235 | 12 | 12 | 1.6 | 6.4 | 0.00 | 0.00 | 0.00 | 95 | 1013.6 |
| 20260508113106 | 12 | 5 | 3.2 | 6.4 | 0.00 | 0.00 | 0.00 | 95 | 1014.0 |
| 20260508112335 | 12 | 17 | 1.6 | 6.4 | 0.00 | 0.00 | 0.00 | 95 | 1014.1 |
| 20260508111604 | 12 | 138 | 0.0 | 3.2 | 0.00 | 0.00 | 0.00 | 95 | 1014.8 |
| 20260508111435 | 12 | 8 | 0.0 | 3.2 | 0.00 | 0.00 | 0.00 | 95 | 1014.5 |
| 20260508105635 | 12 | 6 | 1.6 | 3.2 | 0.00 | 0.00 | 0.00 | 95 | 1014.7 |
| 20260508104735 | 12 | 24 | 1.6 | 3.2 | 0.00 | 0.00 | 0.00 | 95 | 1014.7 |
| 20260508104607 | 12 | 5 | 0.0 | 3.2 | 0.00 | 0.00 | 0.00 | 95 | 1015.1 |
| 20260508103004 | 12 | 33 | 1.6 | 3.2 | 0.00 | 0.00 | 0.00 | 95 | 1014.5 |
| 20260508102935 | 12 | 30 | 1.6 | 3.2 | 0.00 | 0.00 | 0.00 | 95 | 1014.1 |
| 20260508102035 | 12 | 21 | 1.6 | 4.8 | 0.00 | 0.00 | 0.00 | 95 | 1014.1 |
| 20260508101508 | 11 | 355 | 1.6 | 8.0 | 0.00 | 0.00 | 0.00 | 96 | 1014.5 |
| 20260508101135 | 12 | 9 | 1.6 | 8.0 | 0.00 | 0.00 | 0.00 | 95 | 1014.0 |
| 20260508100235 | 12 | 1 | 0.0 | 1.6 | 0.00 | 0.00 | 0.00 | 95 | 1014.0 |
| 20260508100105 | 11 | 360 | 0.0 | 0.0 | 0.00 | 0.00 | 0.00 | 95 | 1014.4 |
| 20260508095335 | 12 | 3 | 0.0 | 3.2 | 0.00 | 0.00 | 0.00 | 95 | 1014.3 |
| 20260508094503 | 11 | 360 | 0.0 | 3.2 | 0.00 | 0.00 | 0.00 | 95 | 1014.4 |
| 20260508093535 | 11 | 47 | 0.0 | 4.8 | 0.00 | 0.00 | 0.00 | 95 | 1013.9 |
| 20260508093104 | 11 | 120 | 0.0 | 0.0 | 0.00 | 0.00 | 0.00 | 95 | 1014.4 |
| 20260508092635 | 11 | 0 | 0.0 | 0.0 | 0.00 | 0.00 | 0.00 | 95 | 1014.2 |
| 20260508091735 | 11 | 0 | 0.0 | 0.0 | 0.00 | 0.00 | 0.00 | 95 | 1014.1 |
| 20260508091605 | 11 | 120 | 0.0 | 0.0 | 0.00 | 0.00 | 0.00 | 95 | 1014.5 |
| 20260508090835 | 11 | 0 | 0.0 | 0.0 | 0.00 | 0.00 | 0.00 | 95 | 1013.8 |
| 20260508090106 | 11 | 120 | 0.0 | 0.0 | 0.00 | 0.00 | 0.00 | 95 | 1014.3 |
| 20260508085935 | 11 | 0 | 0.0 | 0.0 | 0.00 | 0.00 | 0.00 | 95 | 1013.9 |
| 20260508085035 | 11 | 0 | 0.0 | 0.0 | 0.00 | 0.00 | 0.00 | 94 | 1014.0 |
| 20260508084504 | 11 | 120 | 0.0 | 0.0 | 0.00 | 0.00 | 0.00 | 94 | 1014.5 |
| 20260508083235 | 11 | 0 | 0.0 | 0.0 | 0.00 | 0.00 | 0.00 | 94 | 1014.3 |
| 20260508083104 | 11 | 120 | 0.0 | 0.0 | 0.00 | 0.00 | 0.00 | 94 | 1014.7 |
| 20260508082335 | 11 | 0 | 0.0 | 0.0 | 0.00 | 0.00 | 0.00 | 94 | 1014.2 |
| 20260508081508 | 11 | 120 | 0.0 | 0.0 | 0.00 | 0.00 | 0.00 | 94 | 1014.5 |
| 20260508081435 | 11 | 0 | 0.0 | 0.0 | 0.00 | 0.00 | 0.00 | 94 | 1014.0 |
| 20260508080535 | 11 | 0 | 0.0 | 0.0 | 0.00 | 0.00 | 0.00 | 94 | 1014.0 |
| 20260508080010 | 11 | 120 | 0.0 | 0.0 | 0.00 | 0.00 | 0.00 | 93 | 1014.5 |
| 20260508075635 | 11 | 0 | 0.0 | 0.0 | 0.00 | 0.00 | 0.00 | 93 | 1014.2 |
| 20260508074735 | 11 | 0 | 0.0 | 0.0 | 0.00 | 0.00 | 0.00 | 94 | 1014.3 |
| 20260508074503 | 11 | 120 | 0.0 | 0.0 | 0.00 | 0.00 | 0.00 | 94 | 1014.7 |
| 20260508073835 | 11 | 0 | 0.0 | 0.0 | 0.00 | 0.00 | 0.00 | 94 | 1014.4 |
| 20260508073004 | 11 | 120 | 0.0 | 0.0 | 0.00 | 0.00 | 0.00 | 93 | 1014.7 |
| 20260508072935 | 11 | 0 | 0.0 | 0.0 | 0.00 | 0.00 | 0.00 | 93 | 1014.2 |
| 20260508072035 | 11 | 0 | 0.0 | 0.0 | 0.00 | 0.00 | 0.00 | 93 | 1014.3 |
| 20260508071608 | 11 | 120 | 0.0 | 0.0 | 0.00 | 0.00 | 0.00 | 93 | 1014.6 |
| 20260508070235 | 12 | 0 | 0.0 | 0.0 | 0.00 | 0.00 | 0.00 | 93 | 1014.3 |
| 20260508070002 | 11 | 120 | 0.0 | 0.0 | 0.00 | 0.00 | 0.00 | 93 | 1014.8 |
| 20260508064509 | 11 | 120 | 0.0 | 0.0 | 0.00 | 0.00 | 0.00 | 93 | 1015.1 |
| 20260508064435 | 12 | 0 | 0.0 | 0.0 | 0.00 | 0.00 | 0.00 | 93 | 1014.8 |
| 20260508063012 | 12 | 120 | 0.0 | 0.0 | 0.00 | 0.00 | 0.00 | 93 | 1015.1 |
| 20260508062635 | 12 | 0 | 0.0 | 0.0 | 0.00 | 0.00 | 0.00 | 92 | 1014.8 |
| 20260508061735 | 12 | 0 | 0.0 | 0.0 | 0.00 | 0.00 | 0.00 | 92 | 1014.6 |
| 20260508061603 | 12 | 120 | 0.0 | 0.0 | 0.00 | 0.00 | 0.00 | 92 | 1015.0 |
| 20260508060835 | 12 | 0 | 0.0 | 0.0 | 0.00 | 0.00 | 0.00 | 92 | 1014.8 |
| 20260508060008 | 12 | 120 | 0.0 | 0.0 | 0.00 | 0.00 | 0.00 | 92 | 1015.0 |
| 20260508055035 | 12 | 0 | 0.0 | 0.0 | 0.00 | 0.00 | 0.00 | 92 | 1014.6 |
| 20260508054603 | 12 | 120 | 0.0 | 0.0 | 0.00 | 0.00 | 0.00 | 92 | 1015.0 |
| 20260508053235 | 12 | 0 | 0.0 | 0.0 | 0.00 | 0.00 | 0.00 | 91 | 1014.6 |
| 20260508053005 | 12 | 120 | 0.0 | 0.0 | 0.00 | 0.00 | 0.00 | 91 | 1014.9 |
| 20260508052335 | 12 | 0 | 0.0 | 0.0 | 0.00 | 0.00 | 0.00 | 91 | 1014.6 |
| 20260508051604 | 12 | 120 | 0.0 | 0.0 | 0.00 | 0.00 | 0.00 | 91 | 1015.2 |
| 20260508051435 | 13 | 0 | 0.0 | 0.0 | 0.00 | 0.00 | 0.00 | 91 | 1014.8 |
| 20260508050535 | 13 | 0 | 0.0 | 0.0 | 0.00 | 0.00 | 0.00 | 91 | 1014.6 |
| 20260508050009 | 12 | 120 | 0.0 | 0.0 | 0.00 | 0.00 | 0.00 | 91 | 1014.9 |
| 20260508044735 | 13 | 0 | 0.0 | 0.0 | 0.00 | 0.00 | 0.00 | 90 | 1014.8 |
| 20260508044503 | 13 | 120 | 0.0 | 0.0 | 0.00 | 0.00 | 0.00 | 90 | 1015.1 |
| 20260508043835 | 13 | 0 | 0.0 | 0.0 | 0.00 | 0.00 | 0.00 | 90 | 1014.8 |
| 20260508043002 | 13 | 120 | 0.0 | 0.0 | 0.00 | 0.00 | 0.00 | 90 | 1015.2 |
| 20260508042035 | 13 | 0 | 0.0 | 0.0 | 0.00 | 0.00 | 0.00 | 89 | 1014.9 |
| 20260508041602 | 13 | 120 | 0.0 | 0.0 | 0.00 | 0.00 | 0.00 | 89 | 1015.2 |
| 20260508040235 | 13 | 0 | 0.0 | 0.0 | 0.00 | 0.00 | 0.00 | 89 | 1015.0 |
| 20260508040105 | 13 | 120 | 0.0 | 0.0 | 0.00 | 0.00 | 0.00 | 89 | 1015.4 |
| 20260508035335 | 13 | 0 | 0.0 | 0.0 | 0.00 | 0.00 | 0.00 | 89 | 1014.8 |
| 20260508034504 | 13 | 120 | 0.0 | 0.0 | 0.00 | 0.00 | 0.00 | 88 | 1015.1 |
| 20260508033535 | 14 | 0 | 0.0 | 0.0 | 0.00 | 0.00 | 0.00 | 88 | 1014.9 |
| 20260508033105 | 14 | 120 | 0.0 | 0.0 | 0.00 | 0.00 | 0.00 | 88 | 1015.2 |
| 20260508032635 | 14 | 0 | 0.0 | 0.0 | 0.00 | 0.00 | 0.00 | 87 | 1014.7 |
| 20260508031735 | 14 | 0 | 0.0 | 0.0 | 0.00 | 0.00 | 0.00 | 87 | 1014.6 |
| 20260508031604 | 14 | 120 | 0.0 | 0.0 | 0.00 | 0.00 | 0.00 | 87 | 1014.9 |
| 20260508030835 | 15 | 0 | 0.0 | 0.0 | 0.00 | 0.00 | 0.00 | 86 | 1014.6 |
| 20260508030105 | 15 | 120 | 0.0 | 0.0 | 0.00 | 0.00 | 0.00 | 86 | 1015.0 |
| 20260508025935 | 15 | 0 | 0.0 | 0.0 | 0.00 | 0.00 | 0.00 | 85 | 1014.6 |
| 20260508025035 | 15 | 0 | 0.0 | 0.0 | 0.00 | 0.00 | 0.00 | 85 | 1014.7 |
| 20260508024507 | 15 | 120 | 0.0 | 0.0 | 0.00 | 0.00 | 0.00 | 85 | 1015.0 |
| 20260508024135 | 15 | 0 | 0.0 | 0.0 | 0.00 | 0.00 | 0.00 | 85 | 1014.6 |
| 20260508023103 | 15 | 120 | 0.0 | 0.0 | 0.00 | 0.00 | 0.00 | 85 | 1014.7 |
| 20260508022335 | 15 | 0 | 0.0 | 0.0 | 0.00 | 0.00 | 0.00 | 84 | 1014.1 |
| 20260508021507 | 15 | 120 | 0.0 | 0.0 | 0.00 | 0.00 | 0.00 | 84 | 1014.5 |
| 20260508021435 | 15 | 0 | 0.0 | 0.0 | 0.00 | 0.00 | 0.00 | 84 | 1014.1 |
| 20260508020006 | 16 | 120 | 0.0 | 0.0 | 0.00 | 0.00 | 0.00 | 83 | 1014.6 |
| 20260508015635 | 16 | 0 | 0.0 | 0.0 | 0.00 | 0.00 | 0.00 | 83 | 1014.2 |
| 20260508014603 | 16 | 120 | 0.0 | 0.0 | 0.00 | 0.00 | 0.00 | 81 | 1014.6 |
| 20260508013835 | 16 | 120 | 0.0 | 1.6 | 0.00 | 0.00 | 0.00 | 81 | 1014.1 |
| 20260508013003 | 16 | 120 | 0.0 | 3.2 | 0.00 | 0.00 | 0.00 | 79 | 1014.4 |
| 20260508012935 | 17 | 120 | 0.0 | 3.2 | 0.00 | 0.00 | 0.00 | 79 | 1014.1 |
| 20260508012035 | 17 | 120 | 0.0 | 3.2 | 0.00 | 0.00 | 0.00 | 78 | 1014.1 |
| 20260508011603 | 17 | 120 | 0.0 | 1.6 | 0.00 | 0.00 | 0.00 | 77 | 1014.5 |
| 20260508010235 | 18 | 116 | 0.0 | 1.6 | 0.00 | 0.00 | 0.00 | 76 | 1014.0 |
| 20260508010106 | 18 | 120 | 0.0 | 1.6 | 0.00 | 0.00 | 0.00 | 75 | 1014.4 |
| 20260508005335 | 18 | 88 | 0.0 | 1.6 | 0.00 | 0.00 | 0.00 | 74 | 1013.9 |
| 20260508004604 | 18 | 125 | 0.0 | 1.6 | 0.00 | 0.00 | 0.00 | 72 | 1014.2 |
| 20260508004435 | 18 | 327 | 0.0 | 1.6 | 0.00 | 0.00 | 0.00 | 72 | 1013.8 |
| 20260508003535 | 19 | 0 | 0.0 | 0.0 | 0.00 | 0.00 | 0.00 | 73 | 1013.7 |
| 20260508003108 | 18 | 61 | 0.0 | 1.6 | 0.00 | 0.00 | 0.00 | 72 | 1014.0 |
| 20260508002634 | 19 | 321 | 0.0 | 1.6 | 0.00 | 0.00 | 0.00 | 72 | 1013.7 |
| 20260508001735 | 20 | 0 | 0.0 | 0.0 | 0.00 | 0.00 | 0.00 | 70 | 1013.8 |
| 20260508001504 | 19 | 355 | 0.0 | 0.0 | 0.00 | 0.00 | 0.00 | 71 | 1014.1 |
| 20260508000834 | 20 | 139 | 0.0 | 3.2 | 0.00 | 0.00 | 0.00 | 69 | 1013.8 |
| 20260508000104 | 20 | 109 | 0.0 | 3.2 | 0.00 | 0.00 | 0.00 | 68 | 1014.2 |
| 20260507235934 | 20 | 134 | 1.6 | 3.2 | 0.00 | 0.00 | 0.00 | 68 | 1013.8 |
| 20260507235035 | 20 | 133 | 1.6 | 4.8 | 0.00 | 0.00 | 0.00 | 67 | 1013.9 |
| 20260507234503 | 20 | 134 | 1.6 | 4.8 | 0.00 | 0.00 | 0.00 | 67 | 1014.4 |
| 20260507233234 | 20 | 177 | 1.6 | 4.8 | 0.00 | 0.00 | 0.00 | 67 | 1013.9 |
| 20260507233002 | 20 | 161 | 1.6 | 4.8 | 0.00 | 0.00 | 0.00 | 66 | 1014.3 |
| 20260507231502 | 20 | 180 | 1.6 | 6.4 | 0.00 | 0.00 | 0.00 | 63 | 1014.4 |
| 20260507230534 | 21 | 151 | 3.2 | 8.0 | 0.00 | 0.00 | 0.00 | 63 | 1013.9 |
| 20260507230008 | 21 | 158 | 3.2 | 8.0 | 0.00 | 0.05 | 0.00 | 63 | 1014.3 |
| 20260507225634 | 21 | 153 | 4.8 | 8.0 | 0.00 | 0.00 | 0.00 | 62 | 1014.0 |
| 20260507224734 | 21 | 138 | 4.8 | 9.7 | 0.00 | 0.00 | 0.00 | 62 | 1014.0 |
| 20260507224505 | 21 | 134 | 1.6 | 9.7 | 0.00 | 0.05 | 0.00 | 63 | 1014.3 |
| 20260507223834 | 21 | 154 | 6.4 | 9.7 | 0.00 | 0.00 | 0.00 | 61 | 1013.9 |
| 20260507223005 | 21 | 176 | 3.2 | 9.7 | 0.00 | 0.05 | 0.00 | 61 | 1014.6 |
| 20260507222934 | 21 | 151 | 4.8 | 9.7 | 0.00 | 0.00 | 0.00 | 61 | 1014.1 |
| 20260507222034 | 22 | 163 | 6.4 | 11.3 | 0.00 | 0.03 | 0.00 | 59 | 1014.1 |
| 20260507221603 | 22 | 153 | 4.8 | 11.3 | 0.00 | 0.05 | 0.00 | 59 | 1014.6 |
| 20260507221134 | 22 | 156 | 6.4 | 11.3 | 0.00 | 0.05 | 0.00 | 55 | 1014.1 |
| 20260507220235 | 23 | 158 | 3.2 | 6.4 | 0.00 | 0.05 | 0.00 | 51 | 1013.9 |
| 20260507215334 | 23 | 197 | 0.0 | 4.8 | 0.00 | 0.05 | 0.00 | 54 | 1014.0 |
| 20260507214608 | 22 | 236 | 0.0 | 3.2 | 0.00 | 0.05 | 0.00 | 51 | 1014.5 |
| 20260507214434 | 23 | 100 | 0.0 | 3.2 | 0.00 | 0.05 | 0.00 | 50 | 1014.1 |
| 20260507213534 | 23 | 67 | 1.6 | 4.8 | 0.00 | 0.05 | 0.00 | 49 | 1014.1 |
| 20260507213007 | 23 | 61 | 0.0 | 3.2 | 0.00 | 0.05 | 0.00 | 51 | 1014.6 |
| 20260507212634 | 23 | 60 | 1.6 | 4.8 | 0.00 | 0.05 | 0.00 | 52 | 1014.1 |
| 20260507211734 | 23 | 169 | 3.2 | 8.0 | 0.00 | 0.05 | 0.00 | 47 | 1014.1 |
| 20260507211616 | 23 | 40 | 1.6 | 8.0 | 0.00 | 0.05 | 0.00 | 48 | 1014.6 |
| 20260507210005 | 22 | 108 | 1.6 | 6.4 | 0.00 | 0.05 | 0.00 | 52 | 1014.8 |
| 20260507205934 | 23 | 96 | 3.2 | 8.0 | 0.00 | 0.05 | 0.00 | 51 | 1014.3 |
| 20260507205034 | 23 | 135 | 4.8 | 9.7 | 0.00 | 0.05 | 0.00 | 51 | 1014.4 |
| 20260507204607 | 23 | 153 | 3.2 | 9.7 | 0.00 | 0.05 | 0.00 | 54 | 1014.8 |
| 20260507204134 | 23 | 139 | 4.8 | 9.7 | 0.00 | 0.05 | 0.00 | 50 | 1014.6 |
| 20260507203005 | 22 | 104 | 1.6 | 8.0 | 0.00 | 0.05 | 0.00 | 52 | 1015.1 |
| 20260507202334 | 22 | 55 | 3.2 | 9.7 | 0.00 | 0.05 | 0.00 | 52 | 1014.6 |
| 20260507201506 | 22 | 325 | 0.0 | 9.7 | 0.00 | 0.05 | 0.00 | 55 | 1015.4 |
| 20260507201434 | 22 | 113 | 1.6 | 8.0 | 0.00 | 0.05 | 0.00 | 54 | 1015.0 |
| 20260507200111 | 22 | 28 | 1.6 | 9.7 | 0.00 | 0.05 | 0.00 | 52 | 1015.6 |
| 20260507195634 | 22 | 15 | 3.2 | 9.7 | 0.00 | 0.05 | 0.00 | 53 | 1015.1 |
| 20260507194506 | 21 | 88 | 1.6 | 8.0 | 0.00 | 0.05 | 0.00 | 58 | 1015.3 |
| 20260507193834 | 21 | 343 | 4.8 | 8.0 | 0.00 | 0.05 | 0.00 | 53 | 1015.0 |
| 20260507193105 | 21 | 360 | 3.2 | 11.3 | 0.00 | 0.05 | 0.00 | 54 | 1015.7 |
| 20260507192934 | 21 | 310 | 6.4 | 11.3 | 0.00 | 0.05 | 0.00 | 54 | 1015.3 |
| 20260507192034 | 21 | 343 | 4.8 | 9.7 | 0.00 | 0.05 | 0.00 | 52 | 1015.3 |
| 20260507191505 | 21 | 360 | 4.8 | 11.3 | 0.00 | 0.05 | 0.00 | 52 | 1015.9 |
| 20260507191134 | 21 | 242 | 3.2 | 11.3 | 0.00 | 0.05 | 0.00 | 53 | 1015.4 |
| 20260507190108 | 21 | 28 | 4.8 | 11.3 | 0.00 | 0.05 | 0.00 | 53 | 1015.9 |
| 20260507185334 | 21 | 91 | 6.4 | 12.9 | 0.00 | 0.05 | 0.00 | 55 | 1015.5 |
| 20260507184505 | 20 | 90 | 4.8 | 12.9 | 0.00 | 0.08 | 0.00 | 56 | 1016.3 |
| 20260507184434 | 21 | 340 | 4.8 | 11.3 | 0.00 | 0.05 | 0.00 | 56 | 1015.8 |
| 20260507183534 | 21 | 316 | 4.8 | 12.9 | 0.00 | 0.05 | 0.00 | 53 | 1015.9 |
| 20260507183107 | 21 | 278 | 1.6 | 8.0 | 0.00 | 0.08 | 0.00 | 55 | 1016.6 |
| 20260507182634 | 21 | 334 | 1.6 | 8.0 | 0.00 | 0.05 | 0.00 | 53 | 1016.1 |
| 20260507181734 | 20 | 312 | 4.8 | 12.9 | 0.00 | 0.05 | 0.00 | 55 | 1016.5 |
| 20260507181605 | 20 | 324 | 6.4 | 12.9 | 0.00 | 0.08 | 0.00 | 56 | 1017.0 |
| 20260507180834 | 20 | 320 | 6.4 | 14.5 | 0.00 | 0.05 | 0.00 | 53 | 1016.6 |
| 20260507180004 | 20 | 316 | 6.4 | 14.5 | 0.00 | 0.13 | 0.00 | 54 | 1017.2 |
| 20260507175034 | 21 | 160 | 3.2 | 9.7 | 0.00 | 0.10 | 0.00 | 56 | 1016.9 |
| 20260507174507 | 20 | 152 | 4.8 | 9.7 | 0.00 | 0.13 | 0.00 | 62 | 1017.4 |
| 20260507174134 | 20 | 60 | 3.2 | 8.0 | 0.00 | 0.10 | 0.00 | 61 | 1017.0 |
| 20260507173105 | 20 | 21 | 1.6 | 9.7 | 0.00 | 0.13 | 0.00 | 59 | 1017.6 |
| 20260507171509 | 20 | 146 | 4.8 | 9.7 | 0.00 | 0.13 | 0.00 | 59 | 1017.9 |
| 20260507170534 | 19 | 349 | 3.2 | 9.7 | 0.00 | 0.13 | 0.00 | 60 | 1017.6 |
| 20260507170106 | 18 | 79 | 3.2 | 9.7 | 0.00 | 0.13 | 0.00 | 59 | 1018.2 |
| 20260507165634 | 19 | 350 | 4.8 | 9.7 | 0.00 | 0.13 | 0.00 | 61 | 1017.7 |
| 20260507164607 | 19 | 292 | 4.8 | 11.3 | 0.00 | 0.13 | 0.00 | 62 | 1018.5 |
| 20260507163834 | 19 | 72 | 3.2 | 8.0 | 0.00 | 0.13 | 0.00 | 59 | 1018.0 |
| 20260507163103 | 18 | 132 | 3.2 | 11.3 | 0.00 | 0.13 | 0.00 | 61 | 1018.6 |
| 20260507162934 | 18 | 45 | 3.2 | 12.9 | 0.00 | 0.13 | 0.00 | 59 | 1018.1 |
| 20260507162034 | 18 | 77 | 1.6 | 6.4 | 0.00 | 0.13 | 0.00 | 64 | 1018.0 |
| 20260507161504 | 18 | 119 | 0.0 | 6.4 | 0.00 | 0.13 | 0.00 | 62 | 1018.6 |
| 20260507161134 | 18 | 37 | 3.2 | 9.7 | 0.00 | 0.13 | 0.00 | 61 | 1018.1 |
| 20260507160234 | 19 | 144 | 3.2 | 6.4 | 0.00 | 0.13 | 0.00 | 60 | 1018.2 |
| 20260507160010 | 19 | 350 | 1.6 | 6.4 | 0.00 | 0.13 | 0.00 | 64 | 1018.7 |
| 20260507155334 | 18 | 89 | 3.2 | 8.0 | 0.00 | 0.13 | 0.00 | 62 | 1018.2 |
| 20260507154507 | 18 | 105 | 1.6 | 8.0 | 0.00 | 0.13 | 0.00 | 64 | 1018.8 |
| 20260507154434 | 18 | 76 | 3.2 | 8.0 | 0.00 | 0.13 | 0.00 | 64 | 1018.2 |
| 20260507153534 | 18 | 21 | 3.2 | 9.7 | 0.00 | 0.13 | 0.00 | 70 | 1018.3 |
| 20260507153111 | 17 | 53 | 4.8 | 9.7 | 0.00 | 0.13 | 0.00 | 64 | 1018.8 |
| 20260507152634 | 17 | 347 | 3.2 | 8.0 | 0.00 | 0.13 | 0.00 | 64 | 1018.4 |
| 20260507151504 | 17 | 116 | 1.6 | 9.7 | 0.00 | 0.13 | 0.00 | 66 | 1019.1 |
| 20260507150834 | 17 | 25 | 3.2 | 8.0 | 0.00 | 0.13 | 0.00 | 67 | 1018.7 |
| 20260507150105 | 17 | 48 | 3.2 | 8.0 | 0.00 | 0.13 | 0.00 | 66 | 1019.3 |
| 20260507145034 | 17 | 84 | 4.8 | 12.9 | 0.00 | 0.13 | 0.00 | 68 | 1018.7 |
| 20260507144605 | 17 | 74 | 3.2 | 8.0 | 0.00 | 0.13 | 0.00 | 71 | 1019.4 |
| 20260507144134 | 17 | 41 | 3.2 | 11.3 | 0.00 | 0.13 | 0.00 | 70 | 1018.7 |
| 20260507143234 | 16 | 66 | 1.6 | 9.7 | 0.00 | 0.13 | 0.00 | 74 | 1018.8 |
| 20260507143114 | 16 | 97 | 3.2 | 9.7 | 0.00 | 0.13 | 0.00 | 76 | 1019.3 |
| 20260507142334 | 16 | 72 | 3.2 | 8.0 | 0.00 | 0.13 | 0.00 | 75 | 1018.8 |